Location: Unspecified
(51.5147°N, 7.4673°E)
Time: 03:24:28
(UTC+01:00)

Vanguard 1 Rocket - Pass Details

Date: 17 February 2026
Orbit: 653 x 4214 km, 34.3° (Epoch: 12 March)

Event Time Altitude Azimuth Distance (km) Brightness Sun altitude
Rises 18:53:55 0° 269° (W) 6,144 13.9 -10.7°
Reaches altitude 10° 18:57:55 10° 260° (W) 5,572 13.0 -11.3°
Maximum altitude 19:13:24 34° 204° (SSW) 5,068 11.4 -13.7°
Drops below altitude 10° 19:34:20 10° 151° (SSE) 7,402 11.7 -17.0°
Sets 19:40:57 0° 143° (SE) 8,322 11.9 -18.0°
